Lamar, CO

2:47 PM MST on December 08, 2019 (GMT -0700)
Lamar Municipal

Weather History for KLAA - October, 2019

Change the Weather History Date:

Monday, October 7, 2019

  Actual Average Record
Temperature  
Mean Temperature 59 °F 57 °F  
Max Temperature 81 °F 74 °F 98 °F (1934)
Min Temperature 36 °F 39 °F 23 °F (1952)
Degree Days  
Heating Degree Days 6 9  
Month to date heating degree days 50 53  
Since 1 July heating degree days 56 136  
Cooling Degree Days 0 1  
Month to date cooling degree days 1 7  
Year to date cooling degree days 1406 1119  
Growing Degree Days 9 (Base 50)    
Moisture  
Dew Point 32 °F    
Average Humidity 48    
Maximum Humidity 82    
Minimum Humidity 14    
Precipitation  
Precipitation 0.00 in 0.03 in 0.75 in (1946)
Month to date precipitation 0.01 0.19  
Year to date precipitation 7.76 13.81  
Sea Level Pressure  
Sea Level Pressure 30.09 in    
Wind  
Wind Speed 8 mph (SSW)    
Max Wind Speed 22 mph    
Max Gust Speed 32 mph    
Visibility 10 miles    
Events Rain    
T = Trace of Precipitation, MM = Missing Value Source: NWS Daily Summary

Daily Weather History Graph

Daily Weather History Graph

Search for Another Location

Airport or City:

Astronomy

Oct. 07, 2019 Rise Set
Actual Time 6:51 AM MDT 6:24 PM MDT
Civil Twilight 6:25 AM MDT 6:51 PM MDT
Nautical Twilight 5:54 AM MDT 7:21 PM MDT
Astronomical Twilight 5:24 AM MDT 7:52 PM MDT
Moon 3:41 PM MDT (10/7) 12:53 AM MDT (10/7)
Length of Visible Light 12h 25m
Length of Day
11h 33m
Waxing Gibbous, 69% of the Moon is Illuminated
Oct 7
Waxing Gibbous
Oct 13
Full
Oct 21
Last Quarter
Oct 27
New
Nov 4
First Quarter

Hourly Weather History & Observations

Time (MDT) Temp. Windchill Dew Point Humidity Pressure Visibility Wind Dir Wind Speed Gust Speed Precip Events Conditions
12:53 AM 46.9 °F - 30.9 °F 54% 30.27 in 10.0 mi South 16.1 mph - N/A   Clear
1:53 AM 45.0 °F 39.3 °F 32.0 °F 60% 30.28 in 10.0 mi SSW 11.5 mph - N/A   Clear
2:53 AM 46.0 °F 40.2 °F 34.0 °F 63% 30.26 in 10.0 mi SSW 12.7 mph - N/A   Clear
3:53 AM 46.9 °F - 34.0 °F 61% 30.25 in 10.0 mi SSW 13.8 mph - N/A   Clear
4:53 AM 42.1 °F 37.7 °F 33.1 °F 70% 30.25 in 10.0 mi West 6.9 mph - N/A   Clear
5:53 AM 41.0 °F - 33.1 °F 73% 30.26 in 10.0 mi Calm Calm - N/A   Clear
6:53 AM 37.9 °F 34.4 °F 32.0 °F 79% 30.29 in 10.0 mi East 4.6 mph - N/A   Clear
7:53 AM 43.0 °F - 34.0 °F 71% 30.27 in 8.0 mi Calm Calm - N/A   Clear
8:53 AM 53.1 °F - 36.0 °F 52% 30.25 in 10.0 mi Calm Calm - N/A   Clear
9:53 AM 61.0 °F - 36.0 °F 39% 30.21 in 10.0 mi Variable 4.6 mph - N/A   Clear
10:53 AM 66.0 °F - 36.0 °F 33% 30.17 in 10.0 mi WNW 3.5 mph - N/A   Clear
11:53 AM 69.1 °F - 37.0 °F 31% 30.14 in 10.0 mi North 5.8 mph - N/A   Clear
12:53 PM 73.9 °F - 34.0 °F 23% 30.07 in 10.0 mi North - - N/A   Clear
1:53 PM 78.1 °F - 33.1 °F 19% 30.02 in 10.0 mi SSW 6.9 mph - N/A   Clear
2:53 PM 79.0 °F - 32.0 °F 18% 29.98 in 10.0 mi Variable 4.6 mph - N/A   Clear
3:53 PM 81.0 °F - 27.0 °F 14% 29.95 in 10.0 mi SW 5.8 mph - N/A   Clear
4:53 PM 81.0 °F - 26.1 °F 13% 29.93 in 10.0 mi West 4.6 mph - N/A   Clear
5:53 PM 75.0 °F - 32.0 °F 21% 29.93 in 10.0 mi ENE 5.8 mph - N/A   Clear
6:36 PM 71.1 °F - 28.9 °F 21% 30.01 in 10.0 mi South 11.5 mph 24.2 mph N/A   Clear
6:53 PM 69.1 °F - 30.0 °F 23% 29.95 in 10.0 mi South 16.1 mph - N/A   Clear
7:53 PM 64.9 °F - 30.9 °F 28% 29.94 in 10.0 mi SSE 16.1 mph 27.6 mph N/A   Clear
8:53 PM 62.1 °F - 30.9 °F 31% 29.93 in 10.0 mi South 18.4 mph 32.2 mph N/A   Clear
9:53 PM 60.1 °F - 32.0 °F 35% 29.91 in 10.0 mi South 17.3 mph 28.8 mph 0.00 in Rain Light Rain
10:53 PM 57.0 °F - 33.1 °F 40% 29.90 in 10.0 mi South 16.1 mph - 0.00 in   Clear
11:53 PM 51.1 °F - 33.1 °F 50% 29.90 in 10.0 mi Calm Calm - 0.00 in   Clear